[[[{"header":{"parameterUnit":"kt","parameterCategory":2,"dx":1,"dy":1,"la1":30.253999710083008,"la2":30.299108505249023,"lo1":-89.0895004272461,"lo2":-89.04439544677734,"nx":28,"ny":28,"refTime":"2022-10-17T21:00:00:Z","depth":0,"parameterNumber":1,"parameterNumberName":"U-component_of_WINDS"},"data":[0.7167,0.717,0.718,0.7189,0.7199,0.7207,0.7213,0.7222,0.7231,0.7242,0.725,0.7261,0.7275,0.7288,0.7298,0.7303,0.7306,0.73,0.7307,0.7324,0.7328,0.7331,0.733,0.7301,0.7301,0.7288,0.7288,0.7287,0.7179,0.7189,0.7196,0.721,0.7217,0.7228,0.7241,0.7245,0.7252,0.7264,0.7273,0.7283,0.7293,0.731,0.7321,0.7324,0.7331,0.7327,0.7327,0.7329,0.7348,0.7348,0.7321,0.7321,0.7321,0.7321,0.7321,0.7321,0.7204,0.7205,0.7219,0.7228,0.7237,0.7247,0.725,0.7263,0.7271,0.7283,0.7294,0.7302,0.7316,0.7335,0.7345,0.7352,0.7358,0.7357,0.7357,0.7357,0.7355,0.7373,0.7354,0.7354,0.7354,0.7354,0.7355,0,0.7225,0.7233,0.7241,0.7252,0.7258,0.7267,0.7278,0.728,0.7302,0.7307,0.7316,0.7323,0.7337,0.7347,0.736,0.737,0.7384,0.7386,0.7386,0.7381,0.7375,0.7379,0.7409,0.7387,0.7387,0.7387,0.7388,0.7388,0.7251,0.7252,0.7271,0.7275,0.7284,0.729,0.7296,0.7315,0.732,0.7336,0.7337,0.7347,0.7356,0.7369,0.7386,0.7396,0.7403,0.7394,0.7405,0.74,0.7404,0.7404,0.7404,0.7391,0.7391,0.739,0.739,0,0.7265,0.7281,0.7285,0.7305,0.731,0.731,0.7327,0.733,0.7342,0.7348,0.735,0.737,0.7379,0.7397,0.741,0.742,0.7421,0.7427,0.7416,0.7418,0.7412,0.7412,0.7387,0.7385,0.7415,0.7415,0.7415,0,0.7294,0.7294,0.7319,0.732,0.7321,0.734,0.7341,0.7351,0.7364,0.7368,0.7386,0.739,0.7412,0.7419,0.7432,0.7436,0.7439,0.7446,0.745,0.7445,0.7444,0.7449,0.7451,0.7458,0.7458,0.7458,0.7458,0,0.7314,0.7327,0.733,0.7336,0.7357,0.7358,0.7367,0.7381,0.7387,0.7397,0.7402,0.7412,0.7418,0.7427,0.7444,0.7451,0.7449,0.7463,0.7457,0.7456,0.7456,0.7456,0.7428,0.7458,0.7458,0.7458,0.7458,0,0.734,0.735,0.7351,0.7369,0.7372,0.7374,0.7386,0.7392,0.7405,0.7414,0.7422,0.7437,0.7441,0.7453,0.746,0.7464,0.747,0.7477,0.7477,0.7479,0.7492,0.7475,0.7446,0.7444,0.748,0.748,0.7481,0,0.7359,0.7365,0.7381,0.7382,0.7387,0.7407,0.741,0.7421,0.7433,0.7439,0.7452,0.7459,0.7472,0.7477,0.7478,0.7492,0.7486,0.7493,0.7503,0.7503,0.7499,0.7473,0.7465,0.745,0.7483,0.7483,0.7483,0,0.7375,0.7401,0.74,0.7408,0.7426,0.7431,0.7434,0.7445,0.7448,0.7459,0.7462,0.7473,0.7483,0.7491,0.7504,0.7504,0.7491,0.7515,0.7516,0.751,0.7486,0.7478,0.7475,0.7499,0.7499,0.7499,0.7485,0,0.7412,0.7417,0.7415,0.7431,0.7437,0.7439,0.7458,0.7462,0.7473,0.7486,0.749,0.7505,0.7517,0.7519,0.753,0.7524,0.7528,0.7539,0.7553,0.7535,0.7531,0.7529,0.7557,0.7558,0.7558,0.7559,0,0,0.7426,0.7434,0.7452,0.7455,0.7462,0.7483,0.7483,0.7492,0.7509,0.7513,0.752,0.7537,0.7549,0.7553,0.7549,0.7553,0.7554,0.756,0.7543,0.7541,0.754,0.7535,0.7533,0.7559,0.7559,0.756,0.756,0,0.7443,0.7454,0.7454,0.7464,0.7479,0.7492,0.7492,0.7511,0.7519,0.7523,0.7541,0.7546,0.7559,0.7569,0.7576,0.7559,0.7573,0.7562,0.7547,0.7547,0.7544,0.7542,0.7537,0.7535,0.7561,0.7561,0.7561,0,0.7463,0.7477,0.7479,0.7495,0.7505,0.751,0.7529,0.7533,0.7537,0.756,0.7564,0.7575,0.759,0.7591,0.7592,0.7599,0.7589,0.7595,0.7593,0.7594,0.7595,0.7592,0.759,0.7624,0.7624,0.7624,0,0,0.7476,0.7481,0.7502,0.75,0.7505,0.7525,0.7529,0.7541,0.7554,0.7559,0.7573,0.7585,0.7593,0.7598,0.7606,0.7605,0.761,0.7602,0.7599,0.7597,0.7596,0.7597,0.7594,0.7624,0.7624,0.7624,0,0,0.7482,0.7506,0.7516,0.7516,0.7527,0.7548,0.7546,0.7559,0.7568,0.757,0.7591,0.7596,0.7597,0.7607,0.7612,0.7612,0.7625,0.7624,0.7605,0.7602,0.7599,0.7597,0.7633,0,0,0,0,0,0.7509,0.7503,0.7512,0.7515,0.7535,0.7543,0.7546,0.7563,0.7572,0.757,0.7584,0.7598,0.7614,0.7619,0.7621,0.7616,0.7631,0.763,0.7629,0.7604,0.7601,0.7597,0,0,0,0,0,0,0.7511,0.7514,0.7512,0.7532,0.7537,0.7544,0.7562,0.7567,0.7573,0.7575,0.7595,0.7599,0.7614,0.7618,0.7621,0.7615,0.7633,0.7631,0.763,0.7629,0.7603,0.76,0.7597,0,0,0,0,0,0.7512,0.7515,0.7542,0.7532,0.7536,0.7558,0.7563,0.7567,0.7572,0.7593,0.7597,0.7584,0.7613,0.7616,0.762,0.7614,0.7631,0.7632,0.763,0.7629,0.7629,0.7602,0,0,0,0,0,0,0.7513,0.7518,0.7543,0.7545,0.7536,0.7558,0.7562,0.7567,0.7589,0.7593,0.7583,0.7585,0.7613,0.7615,0.7617,0.7612,0.763,0.7631,0.7631,0.7629,0.7629,0.7628,0,0,0,0,0,0,0.7517,0.752,0.7544,0.7548,0.7551,0.7558,0.7561,0.7567,0.7589,0.7579,0.7581,0.7584,0.7609,0.7614,0.7616,0.7624,0.7629,0.763,0.763,0.7631,0.7629,0.7628,0,0,0,0,0,0,0.7519,0.7521,0.7548,0.755,0.7552,0.7574,0.7563,0.7583,0.7592,0.7577,0.7593,0.7594,0.7608,0.761,0.7615,0.7622,0.7624,0.7629,0.763,0.763,0.763,0,0,0,0,0,0,0,0.752,0.7499,0.7532,0.7551,0.7553,0.7563,0.7563,0.7564,0.7592,0.7593,0.7593,0.7594,0.7625,0.7626,0.7627,0.7621,0,0,0.7629,0.763,0,0,0,0,0,0,0,0,0.7499,0.7499,0.7532,0.7533,0.7533,0.7563,0.7563,0.7564,0.7592,0.7593,0.7593,0.7594,0.7625,0.7626,0.7627,0,0,0,0,0,0,0,0,0,0,0,0,0,0,0,0.7532,0.7532,0,0.7563,0.7563,0.7564,0.7592,0.7593,0.7593,0.7593,0.7626,0.7626,0.7627,0,0,0,0,0,0,0,0,0,0,0,0,0,0,0,0,0,0,0,0,0,0,0,0,0,0,0,0,0,0,0,0,0,0,0,0,0,0,0,0,0,0,0,0,0,0,0,0,0,0,0,0,0,0,0,0,0,0,0,0,0,0,0,0,0,0,0,0,0]}],[{"header":{"parameterUnit":"kt","parameterCategory":2,"dx":1,"dy":1,"la1":30.253999710083008,"la2":30.299108505249023,"lo1":-89.0895004272461,"lo2":-89.04439544677734,"nx":28,"ny":28,"refTime":"2022-10-17T21:00:00:Z","depth":0,"parameterNumber":2,"parameterNumberName":"V-component_of_WINDS"},"data":[-3.6045,-3.6172,-3.6257,-3.6443,-3.655,-3.6693,-3.6772,-3.6883,-3.6994,-3.7176,-3.7297,-3.7398,-3.7545,-3.7712,-3.7849,-3.7892,-3.7945,-3.7927,-3.7981,-3.7978,-3.7984,-3.7989,-3.7963,-3.7937,-3.7937,-3.7972,-3.7973,-3.7973,-3.6035,-3.6142,-3.6265,-3.6441,-3.6548,-3.6616,-3.6763,-3.6849,-3.6975,-3.7113,-3.7236,-3.7405,-3.7551,-3.7708,-3.7863,-3.7928,-3.7971,-3.7964,-3.7962,-3.7984,-3.7984,-3.7956,-3.7927,-3.7927,-3.7927,-3.7927,-3.7927,-3.7927,-3.6041,-3.6113,-3.627,-3.6405,-3.6517,-3.6636,-3.6721,-3.6843,-3.6966,-3.7136,-3.7216,-3.7363,-3.7519,-3.775,-3.785,-3.7969,-3.7992,-3.8014,-3.802,-3.8023,-3.8014,-3.7953,-3.8,-3.8,-3.8,-3.8001,-3.8001,0,-3.6071,-3.6137,-3.6261,-3.641,-3.6513,-3.6638,-3.6767,-3.6823,-3.6996,-3.7091,-3.7236,-3.7335,-3.7532,-3.768,-3.7846,-3.7948,-3.8031,-3.805,-3.8065,-3.8028,-3.7973,-3.8005,-3.8001,-3.8048,-3.8049,-3.8049,-3.805,-3.805,-3.6084,-3.6159,-3.6364,-3.644,-3.6531,-3.6651,-3.6741,-3.6888,-3.6977,-3.716,-3.7219,-3.7369,-3.7497,-3.7719,-3.7865,-3.8013,-3.8056,-3.8064,-3.8079,-3.804,-3.8058,-3.8052,-3.8061,-3.8058,-3.8057,-3.8056,-3.8056,0,-3.6083,-3.6223,-3.6367,-3.6564,-3.6616,-3.6688,-3.6859,-3.694,-3.705,-3.7177,-3.7216,-3.739,-3.7532,-3.7678,-3.787,-3.7942,-3.8068,-3.8105,-3.8015,-3.803,-3.8053,-3.8049,-3.8102,-3.8117,-3.8145,-3.8144,-3.8144,0,-3.6149,-3.6242,-3.6446,-3.6522,-3.6631,-3.6776,-3.6882,-3.6987,-3.7124,-3.7225,-3.7342,-3.7435,-3.7607,-3.7722,-3.7829,-3.7957,-3.7994,-3.8057,-3.8084,-3.8047,-3.8039,-3.8099,-3.81,-3.8142,-3.8142,-3.8142,-3.8141,0,-3.6133,-3.6352,-3.6476,-3.6549,-3.677,-3.6826,-3.6921,-3.7075,-3.7163,-3.73,-3.7359,-3.7509,-3.7591,-3.7706,-3.7841,-3.7846,-3.8002,-3.8037,-3.8067,-3.8064,-3.8095,-3.8091,-3.81,-3.8141,-3.8141,-3.8141,-3.814,0,-3.6208,-3.6341,-3.65,-3.6688,-3.6739,-3.6822,-3.6978,-3.7083,-3.7238,-3.731,-3.7419,-3.7515,-3.7638,-3.7662,-3.7836,-3.7803,-3.7878,-3.7951,-3.7956,-3.7977,-3.7999,-3.7986,-3.7978,-3.7984,-3.7994,-3.7993,-3.7992,0,-3.6152,-3.6351,-3.6476,-3.6626,-3.6738,-3.6861,-3.6957,-3.7089,-3.7193,-3.7306,-3.7422,-3.7549,-3.7598,-3.7658,-3.7725,-3.7851,-3.7893,-3.785,-3.8014,-3.8018,-3.7969,-3.7964,-3.7926,-3.7963,-3.7979,-3.798,-3.7981,0,-3.6126,-3.6393,-3.641,-3.65,-3.6697,-3.6792,-3.6901,-3.7059,-3.7126,-3.7263,-3.736,-3.7543,-3.7588,-3.7686,-3.7781,-3.7842,-3.7869,-3.7882,-3.7889,-3.7876,-3.7984,-3.7948,-3.7953,-3.7919,-3.7921,-3.7923,-3.797,0,-3.6209,-3.6327,-3.6381,-3.6572,-3.6668,-3.677,-3.6923,-3.7004,-3.7084,-3.7192,-3.7337,-3.7486,-3.7649,-3.7694,-3.7774,-3.7867,-3.7875,-3.7922,-3.7957,-3.7951,-3.7971,-3.7979,-3.7914,-3.7916,-3.7918,-3.7919,0,0,-3.6121,-3.6293,-3.6428,-3.6538,-3.6627,-3.6754,-3.6849,-3.6952,-3.7156,-3.7216,-3.7236,-3.7514,-3.7635,-3.7796,-3.7806,-3.7872,-3.7904,-3.79,-3.7952,-3.7955,-3.7958,-3.7977,-3.7982,-3.7922,-3.7923,-3.7924,-3.7924,0,-3.6183,-3.6299,-3.639,-3.6502,-3.6671,-3.6781,-3.6802,-3.6994,-3.7068,-3.721,-3.7315,-3.7421,-3.7639,-3.7754,-3.7841,-3.7883,-3.7958,-3.7922,-3.7893,-3.7963,-3.7964,-3.7965,-3.7982,-3.7986,-3.7928,-3.7928,-3.7928,0,-3.6186,-3.6325,-3.6385,-3.6593,-3.6706,-3.6818,-3.6892,-3.7007,-3.7093,-3.7229,-3.7369,-3.7473,-3.7639,-3.777,-3.7835,-3.7856,-3.7999,-3.7981,-3.7975,-3.7986,-3.8063,-3.8063,-3.8064,-3.8056,-3.8055,-3.8055,0,0,-3.6218,-3.6328,-3.6525,-3.6618,-3.6681,-3.6845,-3.6921,-3.7009,-3.7153,-3.7211,-3.7346,-3.7485,-3.7615,-3.7696,-3.7826,-3.7948,-3.7995,-3.799,-3.7985,-3.7979,-3.7986,-3.8061,-3.8062,-3.8055,-3.8054,-3.8054,0,0,-3.6235,-3.6466,-3.6521,-3.6647,-3.678,-3.6981,-3.7033,-3.7107,-3.7238,-3.7244,-3.7401,-3.7445,-3.7571,-3.7669,-3.764,-3.7842,-3.7873,-3.7883,-3.7772,-3.7767,-3.7762,-3.7736,-3.7739,0,0,0,0,0,-3.6377,-3.6437,-3.6484,-3.6528,-3.6793,-3.6954,-3.699,-3.7119,-3.7138,-3.7176,-3.7301,-3.7376,-3.7686,-3.7665,-3.7707,-3.7738,-3.8045,-3.8046,-3.8048,-3.7935,-3.7928,-3.7922,0,0,0,0,0,0,-3.6395,-3.6448,-3.6483,-3.6684,-3.6745,-3.6953,-3.7014,-3.7052,-3.7137,-3.7149,-3.7349,-3.7382,-3.7498,-3.7652,-3.7688,-3.7715,-3.7727,-3.8045,-3.8047,-3.8048,-3.7933,-3.7927,-3.7921,0,0,0,0,0,-3.641,-3.6453,-3.6843,-3.6685,-3.6738,-3.6924,-3.7013,-3.7045,-3.7114,-3.7307,-3.7342,-3.7203,-3.7495,-3.7535,-3.7674,-3.7695,-3.7702,-3.7716,-3.8046,-3.8047,-3.8048,-3.793,0,0,0,0,0,0,-3.6422,-3.6485,-3.6857,-3.6878,-3.6671,-3.6915,-3.6958,-3.7038,-3.7269,-3.7304,-3.7168,-3.7175,-3.7493,-3.7525,-3.7555,-3.768,-3.7682,-3.7696,-3.7704,-3.8047,-3.8048,-3.8049,0,0,0,0,0,0,-3.6463,-3.6501,-3.6867,-3.6843,-3.6863,-3.6906,-3.6944,-3.7082,-3.727,-3.7118,-3.7131,-3.7169,-3.7449,-3.7518,-3.7542,-3.7752,-3.7667,-3.768,-3.7689,-3.7695,-3.8048,-3.8049,0,0,0,0,0,0,-3.6481,-3.6515,-3.6839,-3.6853,-3.6871,-3.7117,-3.7031,-3.7295,-3.7246,-3.7106,-3.7245,-3.7245,-3.7441,-3.7468,-3.7532,-3.7732,-3.7747,-3.7668,-3.7676,-3.7683,-3.7687,0,0,0,0,0,0,0,-3.6497,-3.624,-3.6731,-3.6862,-3.6877,-3.7072,-3.7078,-3.7084,-3.7246,-3.7246,-3.7245,-3.7245,-3.7594,-3.7608,-3.7622,-3.7715,0,0,-3.7666,-3.7673,0,0,0,0,0,0,0,0,-3.6229,-3.6238,-3.6732,-3.6736,-3.6741,-3.7073,-3.7078,-3.7082,-3.7246,-3.7246,-3.7245,-3.7245,-3.7598,-3.7609,-3.7621,0,0,0,0,0,0,0,0,0,0,0,0,0,0,0,-3.6732,-3.6736,0,-3.7074,-3.7077,-3.7081,-3.7246,-3.7246,-3.7245,-3.7245,-3.7601,-3.7611,-3.762,0,0,0,0,0,0,0,0,0,0,0,0,0,0,0,0,0,0,0,0,0,0,0,0,0,0,0,0,0,0,0,0,0,0,0,0,0,0,0,0,0,0,0,0,0,0,0,0,0,0,0,0,0,0,0,0,0,0,0,0,0,0,0,0,0,0,0,0,0]}]]]